EHI
15 18 21 21 18 15 13 11 8 7 7 7 7 6 4 2 3 3 3 3 3 3 2 1 1 0 0 0 0 0 0 0 0 0 0 0 0 0 0 0 0 0 1
15 18 22 24 22 19 16 14 12 9 8 7 7 4 2 2 2 3 3 3 4 4 3 2 1 0 0 0 0 0 0 0 0 0 0 0 0 0 0 0 0 0 1
16 18 24 30 30 26 24 22 19 15 11 9 6 4 3 2 2 2 4 5 6 6 4 2 1 0 0 0 0 0 0 0 0 0 0 0 0 0 0 0 0 0 1
18 21 27 33 36 34 30 27 24 21 16 11 8 7 7 6 3 2 4 6 8 7 4 1 0 0 0 0 0 0 0 1 1 0 0 0 0 0 0 0 0 0 0
19 23 28 32 35 36 33 30 27 24 19 15 12 10 9 8 6 4 4 4 6 6 4 1 1 1 1 1 1 1 0 1 1 0 0 0 0 0 0 0 0 0 0
18 21 26 28 31 35 35 33 30 26 22 19 16 13 10 10 9 8 6 5 5 6 5 4 3 2 2 2 1 1 0 1 1 0 0 0 0 0 0 0 0 0 0
18 22 26 28 32 38 39 36 32 30 28 24 20 17 15 12 11 11 10 9 8 8 9 8 6 5 4 3 2 1 1 1 1 0 0 1 1 1 1 1 1 0 0
20 24 29 30 35 40 42 39 36 35 34 31 26 22 20 16 12 10 11 11 11 11 11 11 11 11 9 6 4 4 3 3 2 2 3 4 4 4 4 3 2 1 0
22 26 31 32 33 37 41 42 41 39 37 36 32 26 23 19 13 9 10 10 10 11 12 13 14 15 15 12 9 7 5 5 4 4 6 6 6 6 7 7 4 2 1
20 24 30 31 31 33 37 40 41 39 37 36 34 30 24 19 14 11 10 10 9 8 10 13 15 17 18 18 14 11 9 8 6 6 7 7 6 7 7 8 7 4 3
18 20 26 29 29 30 33 36 37 37 37 36 34 32 28 22 17 14 13 13 11 8 8 12 15 17 18 19 17 14 11 9 7 6 6 6 6 7 7 7 6 4 3
17 18 22 27 28 27 28 32 35 38 40 38 35 35 34 29 23 19 18 18 15 12 11 13 15 16 18 20 20 18 15 12 10 9 8 7 6 6 7 7 5 3 1
22 21 22 25 27 27 25 27 32 37 40 40 38 37 36 32 27 24 22 20 18 15 15 17 17 17 21 24 25 25 22 17 14 13 11 8 6 6 6 6 4 2 0
28 26 24 24 26 27 25 25 28 32 36 38 38 37 34 30 26 25 23 20 18 16 17 20 20 21 23 24 25 26 24 18 14 13 12 10 7 6 6 6 4 2 1
28 27 24 22 23 25 25 26 28 29 31 34 35 33 31 28 25 22 20 18 16 15 18 20 21 22 23 22 22 22 20 16 12 11 12 10 7 6 6 5 4 2 2
24 24 22 20 21 22 23 25 27 27 27 29 31 29 28 26 23 18 16 14 13 14 18 21 22 23 22 20 18 17 17 17 14 11 10 9 7 6 6 4 3 2 2
24 23 21 19 19 19 20 21 24 25 24 26 28 27 25 23 20 17 15 14 15 18 21 23 25 24 21 17 14 12 14 15 13 10 9 8 6 5 5 4 3 1 1
24 24 22 19 17 17 18 19 21 21 21 23 25 24 23 21 19 18 17 17 19 22 23 23 22 20 16 13 9 7 9 10 9 7 7 6 5 4 4 3 3 2 1
22 22 20 17 16 16 17 19 19 18 18 20 21 20 18 18 18 18 18 18 19 20 20 18 16 13 12 9 6 4 5 6 5 5 5 4 3 2 3 3 3 1 0
19 20 19 16 15 16 17 17 17 16 16 18 19 18 15 14 15 16 17 17 16 15 15 14 11 9 9 7 4 3 5 7 5 4 3 2 1 1 1 2 2 1 0
17 20 20 18 16 16 17 17 15 14 14 16 18 18 16 14 13 14 15 15 14 12 11 11 10 9 7 6 3 2 5 7 7 5 3 1 0 0 0 1 1 1 0
15 18 20 18 17 16 17 16 15 12 12 14 16 16 15 13 14 15 15 14 13 11 10 10 10 9 7 4 2 1 2 4 5 5 4 2 1 0 0 0 0 0 0
11 13 16 17 16 16 16 15 14 13 12 13 14 13 11 11 14 16 15 13 13 11 10 9 10 9 7 3 1 0 0 1 1 2 2 1 0 0 0 0 0 0 0
7 7 10 14 15 15 14 13 13 12 11 12 12 11 10 10 12 14 13 12 12 11 10 8 8 7 6 3 1 0 0 0 0 0 0 0 0 0 0 0 0 0 0
5 5 7 11 13 12 11 11 9 9 8 9 9 9 9 9 9 9 9 9 9 8 7 6 5 5 5 3 2 0 0 0 0 0 0 0 0 0 0 0 0 0 0
4 4 6 9 10 9 8 8 6 6 6 7 7 8 8 7 7 7 7 7 6 4 3 4 4 4 4 3 1 0 0 0 0 0 0 0 0 0 0 0 0 0 0
Wind_Speed
9 10 12 12 10 9 8 8 7 6 5 3 3 3 3 3 3 4 6 6 6 6 5 4 4 4 4 4 4 3 2 2 1 1 1 2 2 2 3 3 3 4 5
9 10 10 11 11 11 10 8 8 7 6 4 3 3 3 3 3 4 5 6 6 6 6 5 4 5 4 4 4 3 2 2 2 2 1 2 3 2 2 2 3 4 3
14 13 12 11 11 11 11 10 8 7 6 5 3 2 2 2 2 3 3 5 6 6 5 6 5 5 5 4 5 5 4 3 2 3 3 2 2 2 2 2 2 3 3
11 12 13 12 12 12 10 9 8 7 6 6 5 5 5 4 4 4 3 4 5 6 6 6 6 5 4 5 5 4 4 4 3 2 2 3 4 2 2 3 2 3 3
13 13 14 13 12 11 10 9 8 7 6 6 6 5 4 4 3 3 4 4 4 5 6 6 5 5 5 5 5 4 4 4 4 3 2 1 1 2 2 3 3 2 3
12 11 11 10 9 9 8 8 8 8 7 7 6 6 6 5 4 4 4 4 3 4 5 6 5 5 5 6 6 5 5 4 4 3 3 3 2 3 3 3 3 3 3
9 10 10 10 10 10 10 9 9 8 8 8 7 6 6 6 6 5 5 4 4 4 5 6 5 5 5 6 5 5 5 5 5 5 4 3 3 3 3 2 2 2 2
7 9 10 11 11 11 10 10 10 9 9 9 8 6 6 5 4 4 4 4 4 5 5 6 6 6 6 6 5 5 6 5 6 6 5 3 4 3 3 3 3 2 2
7 9 10 10 9 10 9 10 10 9 9 9 8 6 6 5 5 5 4 3 3 4 4 5 5 5 6 6 5 4 5 5 5 5 5 4 3 3 3 3 4 4 3
6 7 8 8 7 7 7 7 7 8 8 8 8 7 7 6 5 5 5 4 4 4 4 4 5 5 5 5 5 4 4 4 4 4 4 4 3 2 2 3 3 3 4
6 7 6 6 6 6 6 6 6 6 6 7 7 6 6 6 5 5 5 5 4 4 4 4 4 4 5 4 4 4 4 4 4 4 4 4 3 2 2 2 2 3 3
6 7 7 6 5 5 6 6 5 5 6 7 6 6 5 5 5 6 6 5 5 5 5 4 4 5 4 4 4 5 4 5 5 5 4 4 3 3 3 2 3 3 3
5 5 6 6 6 5 5 5 5 5 5 5 5 5 5 6 6 6 6 5 5 4 4 4 4 4 5 4 4 5 5 5 5 5 5 5 4 4 3 3 3 2 2
5 5 5 5 5 5 5 5 4 5 4 5 5 5 5 5 6 6 5 5 5 4 4 4 4 5 5 5 4 4 4 4 4 4 4 4 4 5 4 3 3 3 2
4 4 4 4 3 3 3 3 3 4 4 5 5 5 4 3 3 4 4 4 5 5 5 5 4 4 4 4 4 4 4 4 3 3 4 4 5 6 5 3 3 3 2
4 3 3 4 4 3 2 2 3 3 4 5 5 4 4 4 3 3 3 3 4 4 4 5 5 4 4 4 4 4 3 3 3 3 2 3 3 4 4 5 5 5 4
3 3 3 3 3 3 2 2 2 2 3 4 3 3 3 3 4 4 3 3 3 3 4 4 5 4 4 4 4 4 3 3 3 3 3 3 2 2 2 3 3 4 5
4 3 2 2 2 2 2 1 2 2 3 3 2 3 4 4 3 3 3 3 2 3 3 4 4 3 3 4 4 4 3 2 3 3 3 3 3 2 3 2 2 2 3
4 4 3 2 2 2 2 1 1 1 2 2 2 3 3 3 3 3 3 2 2 2 3 3 3 3 3 4 4 4 2 2 2 2 3 3 3 3 2 2 2 2 3
3 3 3 2 2 1 2 2 1 1 1 2 2 3 3 3 3 3 3 2 2 3 2 2 3 4 3 3 3 4 2 2 1 1 2 3 3 2 2 2 2 3 4
3 3 3 3 3 2 2 2 0 2 2 1 1 1 2 3 3 2 2 2 2 2 2 2 2 2 3 3 4 5 3 3 2 2 2 2 2 2 2 3 3 5 3
2 2 2 2 2 2 2 1 2 2 1 1 1 1 1 1 1 1 1 2 2 3 2 2 1 1 2 2 3 4 5 4 3 3 2 2 3 3 3 3 4 4 2
1 1 2 1 1 1 2 2 3 1 1 1 1 1 0 0 1 2 2 1 2 2 2 2 2 2 1 2 2 3 4 4 3 2 2 3 3 2 2 3 2 2 1
1 1 2 1 1 1 1 2 2 1 2 1 1 0 0 0 0 1 2 2 2 2 2 2 3 2 2 2 1 2 2 2 1 1 1 1 2 1 2 2 1 1 1
1 1 2 2 2 2 2 2 2 1 2 1 1 1 1 2 1 1 1 2 2 2 4 4 4 4 3 4 5 3 3 3 2 2 1 1 1 1 1 1 1 1 0
1 1 1 2 2 1 1 2 1 2 2 1 1 1 1 1 1 1 0 2 1 0 1 2 3 3 4 4 5 5 4 4 5 3 1 1 1 1 1 1 1 1 1
Wind_Direction
177 170 165 164 164 166 167 169 168 174 166 158 164 167 174 170 169 176 172 174 175 173 169 174 173 173 176 185 180 168 175 199 156 97 339 319 288 248 235 222 209 224 225
171 175 169 167 171 172 173 173 175 174 174 175 175 170 161 165 169 173 176 180 177 175 175 173 178 179 176 179 182 170 165 201 169 146 105 336 328 303 252 232 220 227 228
178 176 176 175 175 176 175 177 178 175 176 171 152 142 122 118 147 167 182 188 182 181 181 181 181 183 179 185 192 183 176 191 202 174 159 168 233 291 303 274 246 240 232
179 178 176 176 179 180 176 174 173 171 174 171 165 163 168 177 190 185 188 192 188 187 189 187 185 184 183 186 196 190 182 177 197 214 204 187 176 187 282 302 278 258 241
184 183 182 180 180 176 175 175 171 172 175 176 176 175 178 181 176 174 183 194 196 196 196 190 187 188 189 192 197 194 192 185 191 197 202 214 216 189 185 263 285 287 264
186 184 181 174 175 174 173 176 175 179 180 178 178 179 179 179 177 185 191 199 201 204 204 196 193 195 195 197 199 201 200 199 198 202 196 190 196 204 194 223 252 265 272
179 174 172 174 177 178 179 180 180 182 183 183 185 186 186 182 188 189 192 193 198 206 210 204 198 202 204 201 196 201 209 204 204 208 211 209 214 202 188 197 236 257 276
168 171 174 179 179 179 181 182 186 188 186 186 191 191 186 184 193 191 186 195 204 208 205 202 203 206 204 207 202 206 212 208 209 218 212 210 220 208 198 190 192 252 281
165 169 169 174 178 181 185 184 186 189 191 191 190 193 192 190 194 193 189 195 204 207 202 202 204 208 206 206 201 210 215 210 210 215 212 214 224 212 209 199 187 186 235
159 160 165 170 172 174 178 180 181 191 194 193 194 195 198 200 197 189 194 199 204 205 198 202 205 207 207 204 200 208 215 207 214 211 209 218 223 219 209 202 201 189 194
161 157 157 162 162 155 161 173 181 186 194 195 194 196 196 199 196 197 200 199 202 202 207 204 203 209 211 207 203 208 200 206 220 222 213 222 217 214 217 207 202 205 190
158 154 151 149 152 165 172 169 170 179 191 192 191 198 196 192 199 209 209 201 202 206 208 207 204 208 212 208 204 212 210 208 220 223 214 222 216 213 223 215 219 221 210
130 142 145 152 159 170 173 170 178 182 180 176 185 194 196 197 206 212 212 208 207 207 204 199 202 207 208 209 213 211 214 213 218 216 213 220 212 220 225 224 231 235 234
121 128 138 150 158 170 175 174 181 182 175 171 177 189 200 207 211 212 210 211 207 202 202 202 205 209 210 210 215 216 220 219 217 216 216 220 211 214 217 223 229 224 218
121 127 136 139 140 144 155 164 171 178 175 175 184 195 199 203 217 213 211 208 204 203 196 194 200 204 203 213 208 210 214 211 215 219 218 217 210 209 211 213 219 210 210
118 123 130 133 132 140 154 159 167 176 173 179 192 195 189 190 204 216 213 209 206 203 194 194 197 201 211 209 198 194 198 195 199 212 220 221 225 221 223 223 220 208 211
142 135 134 139 145 162 156 158 173 162 162 174 184 181 175 186 198 200 188 203 206 199 196 201 198 200 207 199 195 187 187 190 202 210 215 227 233 223 227 238 248 246 239
151 143 136 129 145 153 155 165 160 157 155 161 177 191 189 193 202 196 198 205 200 199 197 203 200 197 208 202 198 190 187 193 207 211 208 206 223 224 217 229 262 278 275
164 159 156 148 148 149 151 138 135 142 143 168 184 205 206 197 199 204 213 211 190 207 208 194 195 196 211 202 192 183 176 189 222 224 206 193 207 233 206 185 237 280 287
154 158 150 135 148 183 154 137 141 158 214 226 208 204 206 197 202 208 208 205 190 205 197 189 200 195 212 214 194 177 172 186 234 258 241 211 209 225 209 197 213 251 267
154 157 149 159 189 192 142 136 158 226 234 227 190 189 197 202 204 203 193 175 176 173 179 186 216 218 221 226 202 183 180 194 206 227 248 250 232 229 239 222 223 240 249
126 136 152 189 204 177 151 157 240 244 219 164 156 162 178 204 189 171 181 164 169 174 183 182 205 237 238 220 216 196 192 189 190 215 227 235 232 247 260 254 252 250 246
174 180 170 192 237 197 156 202 253 253 180 149 178 233 271 199 180 165 164 165 176 187 195 189 204 222 222 222 221 206 201 199 191 211 231 240 249 272 275 271 256 223 189
214 176 152 166 252 274 243 223 236 214 169 179 199 194 146 117 181 159 154 163 189 206 201 197 208 211 216 225 228 219 200 187 177 194 285 279 272 286 275 276 263 233 199
220 158 154 184 226 244 249 247 232 176 171 185 194 194 189 178 157 141 160 172 181 197 196 201 200 196 211 227 214 194 192 189 185 144 82 39 17 351 336 325 307 293 232
207 181 182 194 224 234 256 261 237 186 180 190 202 203 188 174 164 163 71 50 90 6 237 208 198 211 210 200 200 203 188 174 161 137 141 184 218 226 241 255 286 276 234